sat.trackr.live / text

‹ back to catalog

STARLINK-34119

NORAD 63895 · 2025-095F

PAYLOAD ACTIVE UNKNOWN

§ Identity

Operator
Country
US
Launch date
2025-05-10
Launch site
AFETR
Launch vehicle
Mass (kg)
RCS (m²)

Purposes: comms

External: N2YO · Heavens-Above · Gunter

§ Orbital elements

Epoch: 2026-09-19T10:06:40.914432Z

Period
94.27 min
Inclination
42.9962°
Eccentricity
0.0000298
Mean motion
15.27585138 rev/d
Perigee alt
482.8 km
Apogee alt
483.2 km
Semi-major
6,861.2 km
B*
1.7724e-4
RAAN
162.3751°
Arg perigee
356.5711°
Mean anomaly
3.5138°
Rev number
7,741

§ Raw data

STARLINK-341191 63895U 25095F   26262.42130688  .00004620  00000+0  17724-3 0  99972 63895  42.9962 162.3751 0000298 356.5711   3.5138 15.27585138 77411

JSON: /api/v1/satellites/63895 · /tle

For live sub-satellite position, see the globe view (requires WebGL).

§ Visibility from observer

Set your observer location to see the next 7 days of passes ≥ 10°. The values pass through the URL so the page stays shareable.

No JS? Fill the form by hand. The geolocation button needs JavaScript.